Location: Gleizolles
(44.4833°N, 6.7667°E)
Time: 05:53:41
(UTC+00:00)

Transit 4A - Pass Details

Date: 29 June 2024
Orbit: 870 x 973 km, 66.8° (Epoch: 14 July)

Event Time Altitude Azimuth Distance (km) Brightness Sun altitude
Rises 02:44:03 0° 333° (NNW) 3,486 11.2 -9.9°
Reaches altitude 10° 02:47:46 10° 356° (N) 2,559 10.9 -9.5°
Maximum altitude 02:51:04 15° 30° (NNE) 2,231 11.2 -9.0°
Drops below altitude 10° 02:54:24 10° 65° (ENE) 2,590 11.6 -8.6°
Sets 02:58:10 0° 88° (E) 3,551 11.8 -8.1°
